Wind_Speed
25 24 24 23 22 21 20 19 17 16 15 14 13 12 11 10 10 10 10 9 8 8 7 6 5 4 4 5 7 9 9 10 10 10 11 12 13 14 15 17 19 21
25 25 24 24 23 22 21 20 18 17 16 16 14 13 12 12 12 12 12 11 10 9 9 8 7 6 6 6 8 9 10 11 11 11 11 12 13 14 15 17 19 21
26 25 25 24 23 23 22 21 19 18 18 17 15 14 14 13 13 13 13 12 12 11 10 9 9 8 7 8 9 11 12 12 12 11 12 13 14 15 15 17 19 22
27 26 25 24 24 23 23 22 21 20 19 18 17 16 16 15 15 15 14 13 13 12 11 10 10 9 9 10 11 12 13 13 13 12 12 13 15 16 17 17 20 22
27 26 26 26 25 25 25 23 23 22 21 20 19 18 18 17 17 16 15 15 14 13 12 11 10 10 10 11 12 13 13 13 13 13 13 14 16 17 18 19 20 23
28 28 27 27 27 27 26 25 24 23 23 22 22 21 20 19 19 18 17 16 14 13 12 12 11 11 11 12 12 13 13 13 14 14 15 15 16 17 18 19 21 24
30 29 29 29 29 29 27 26 26 25 25 24 24 23 22 21 20 19 18 17 15 14 13 12 12 12 12 12 13 13 13 14 15 15 16 16 17 17 19 20 22 25
32 30 30 30 31 30 29 28 28 27 27 26 25 24 23 22 21 20 19 17 16 15 14 14 13 13 14 14 14 14 15 15 16 17 17 18 18 19 20 21 23 25
32 32 32 32 32 31 30 30 30 29 28 27 26 26 25 23 22 21 19 18 17 16 15 15 15 15 15 15 16 16 16 17 18 18 19 19 19 20 20 21 23 25
34 34 33 33 33 32 32 32 31 31 31 29 29 28 26 24 23 22 21 19 18 18 17 17 16 16 17 17 17 17 17 18 18 18 18 19 19 20 21 22 24 25
36 36 36 34 33 32 32 32 32 33 32 31 30 29 27 26 25 24 22 21 20 20 19 18 18 18 18 17 17 18 18 18 17 18 18 19 20 21 22 24 25 26
38 39 38 36 33 33 33 33 33 33 33 32 31 29 28 27 26 25 24 23 22 22 21 20 20 19 18 18 18 18 18 18 18 19 19 20 21 22 23 25 26 27
39 40 39 36 34 34 34 34 33 33 33 33 32 30 30 29 28 27 26 25 25 24 23 22 22 21 19 19 18 19 19 19 20 20 21 22 23 24 25 26 27 28
40 40 39 37 36 35 35 35 35 34 34 34 33 32 32 31 30 29 28 28 27 26 25 24 23 22 21 20 20 20 20 20 21 21 22 24 25 25 26 27 28 28
40 40 39 39 38 37 37 37 36 35 35 35 35 34 33 32 31 31 31 30 29 28 27 26 25 23 23 22 22 22 22 21 21 22 24 25 26 27 27 28 28 27
39 39 39 39 40 40 39 38 37 36 36 36 35 35 35 34 33 33 33 32 31 30 29 28 27 25 25 24 24 24 23 23 23 24 25 26 27 28 28 29 29 28
39 39 39 40 41 42 41 40 39 38 37 36 36 36 36 35 35 35 34 33 33 32 31 30 28 27 27 26 26 26 25 25 25 25 27 28 28 29 29 29 29 29
40 40 40 40 42 43 42 41 41 40 38 38 37 37 37 37 37 37 36 35 35 34 33 32 31 30 29 29 28 28 28 27 27 27 28 29 30 30 30 30 30 30
40 41 41 41 41 42 43 43 43 42 41 40 39 38 38 38 39 39 38 37 37 37 35 34 33 33 32 31 31 31 30 30 29 29 30 30 31 31 31 31 31 31
38 40 41 41 42 41 42 44 45 45 43 42 41 40 40 41 40 39 39 39 39 38 37 37 36 35 34 33 33 33 33 32 31 31 31 32 32 33 32 32 32 32
37 38 39 40 41 42 43 44 46 46 46 45 44 43 42 42 41 40 40 41 40 40 40 39 38 37 36 35 35 35 35 33 32 32 33 33 33 34 33 33 33 32
38 37 37 37 39 41 43 44 45 46 46 46 46 45 44 44 43 43 42 42 41 41 41 41 40 38 38 38 37 36 35 34 33 34 34 35 35 34 34 34 34 33
40 39 38 37 37 39 42 43 43 44 45 46 47 47 46 46 45 44 43 43 43 43 43 42 41 41 40 40 38 37 36 35 35 36 36 36 36 35 35 35 34 34
42 41 40 38 37 38 40 41 42 43 43 45 48 49 49 48 47 45 45 44 45 45 45 44 43 43 42 41 40 39 38 38 38 38 38 38 36 36 36 36 35 34
43 42 41 40 38 38 38 39 41 42 42 44 46 49 50 50 49 48 47 46 46 46 46 45 45 45 44 43 42 42 42 41 41 41 40 38 37 37 38 37 36 35
46 44 42 40 39 37 37 38 40 40 41 43 45 47 48 49 50 50 50 49 48 48 47 47 47 47 47 46 45 44 44 44 43 43 41 39 38 38 39 38 37 36
Wind_Direction
212 212 212 213 213 213 212 212 213 214 218 220 222 223 227 235 244 251 255 255 254 251 248 248 255 272 300 321 330 335 338 342 348 353 358 359 359 360 2 3 2 0
216 215 215 215 215 215 215 215 215 215 218 223 227 228 230 235 242 249 256 257 256 253 252 252 254 263 285 306 317 323 327 330 334 339 344 346 346 347 351 355 355 354
218 217 217 217 217 217 217 217 217 217 219 224 229 232 234 237 240 246 252 257 258 258 257 256 255 261 280 298 310 316 319 321 323 326 331 334 335 336 342 347 348 348
220 220 219 219 219 217 217 217 218 219 221 224 228 232 235 237 239 242 247 252 256 258 261 261 257 261 278 295 306 311 314 315 315 317 321 324 326 329 334 340 342 341
223 222 221 220 219 219 219 219 220 222 222 224 227 230 234 237 238 240 242 246 251 254 258 259 260 267 279 294 303 308 312 314 313 312 313 315 319 324 329 335 337 336
226 224 223 223 222 222 222 222 222 223 223 225 227 229 232 235 237 238 239 240 244 247 251 254 261 271 283 292 299 305 309 313 313 311 310 313 317 321 326 330 332 332
229 228 227 226 226 226 225 225 225 224 224 225 228 230 233 235 236 237 237 236 237 239 244 250 259 270 279 286 291 298 303 307 309 310 312 315 318 321 323 325 327 327
231 231 230 229 230 230 228 227 227 227 227 228 230 232 234 235 236 237 236 234 232 234 240 248 257 266 272 278 285 291 296 300 304 309 314 316 317 319 320 322 323 324
232 233 233 232 233 233 231 230 230 229 230 230 232 234 235 235 236 236 235 233 232 234 239 247 254 261 268 276 284 291 296 300 304 309 311 314 316 318 320 321 322 324
232 235 235 235 235 235 235 234 233 232 232 232 233 235 237 237 236 235 233 231 232 236 241 246 252 260 269 278 287 294 298 301 304 307 309 313 317 319 320 320 321 324
227 233 235 235 237 237 237 237 236 236 236 236 236 238 238 238 237 236 233 232 233 238 243 247 253 260 271 281 289 293 295 297 301 306 310 313 316 316 316 317 320 323
225 230 233 233 234 237 239 239 239 240 240 240 240 240 238 237 237 236 235 233 235 240 244 248 254 262 271 280 286 287 288 293 299 305 309 311 313 313 313 316 319 320
226 229 233 233 233 236 239 240 240 241 241 242 242 240 237 237 237 237 236 235 238 241 245 249 255 263 271 277 280 280 284 290 297 303 307 309 310 310 312 315 317 318
230 231 235 235 233 235 238 241 242 242 242 242 241 239 238 237 237 236 236 237 239 242 245 249 255 262 269 274 276 277 281 287 293 299 304 307 308 309 311 314 315 315
235 236 237 237 235 234 236 239 242 243 243 243 242 242 240 239 238 237 237 239 241 244 246 250 255 261 267 272 274 275 279 283 288 294 300 304 306 308 310 312 313 313
238 239 240 239 237 236 236 237 239 242 243 244 245 245 244 242 240 240 240 241 243 245 248 251 255 260 266 271 273 275 277 279 283 289 295 301 304 306 308 310 311 311
240 241 241 240 239 238 238 238 237 239 242 244 246 246 245 244 243 243 243 244 245 247 249 252 256 261 266 270 273 275 276 277 280 285 291 297 301 304 306 308 308 309
240 241 242 241 241 242 243 241 239 238 239 242 244 245 245 245 245 245 246 246 247 249 251 254 257 261 265 269 273 275 276 277 279 282 288 294 299 302 303 304 305 306
241 241 242 242 242 244 245 245 242 239 238 239 241 243 245 245 245 246 247 248 249 251 253 255 257 260 264 269 273 275 276 276 278 282 286 291 296 299 300 301 302 303
242 243 243 243 243 244 245 245 244 242 240 238 239 241 243 245 246 247 247 248 250 251 253 255 257 260 265 269 272 274 275 276 278 281 285 289 294 296 297 298 299 300
242 243 244 244 245 245 244 244 245 244 243 241 240 240 242 245 247 247 248 249 250 252 254 256 258 261 265 268 271 272 273 275 277 280 284 287 291 293 294 295 296 297
241 242 244 245 246 245 245 245 245 246 246 245 243 242 242 244 246 248 249 251 252 254 255 257 259 262 265 267 269 270 272 274 276 279 282 285 288 290 290 292 293 295
240 242 244 245 246 246 245 245 246 247 247 247 246 244 244 244 245 248 250 252 254 255 256 258 260 262 263 265 266 269 271 273 275 277 280 283 286 286 287 288 290 292
240 242 243 244 246 246 246 246 246 246 247 247 247 246 245 245 245 247 249 251 253 255 256 258 260 261 262 263 265 268 270 272 273 276 279 282 283 284 284 286 288 290
239 241 242 243 245 247 246 245 246 246 247 248 248 247 247 247 247 247 248 249 251 254 256 257 258 260 261 262 265 268 270 271 273 275 277 280 281 282 282 284 286 288
239 240 241 242 244 246 245 244 244 245 246 247 248 249 248 248 248 248 248 249 251 253 254 256 257 259 261 263 265 267 269 271 272 274 276 278 279 279 280 282 284 286
Height
10992 10994 10995 10996 10997 10998 10999 11000 11001 11003 11004 11005 11006 11007 11007 11008 11009 11010 11010 11011 11012 11012 11012 11012 11013 11013 11014 11014 11014 11014 11014 11014 11013 11013 11013 11013 11013 11012 11012 11011 11010 11008
10991 10992 10994 10995 10996 10997 10998 10999 11000 11002 11003 11004 11005 11006 11007 11007 11008 11009 11010 11011 11011 11012 11012 11012 11013 11013 11013 11014 11014 11014 11014 11013 11013 11013 11013 11013 11012 11012 11011 11011 11009 11008
10989 10990 10992 10994 10995 10996 10997 10998 10999 11000 11001 11003 11004 11005 11006 11007 11007 11008 11009 11010 11010 11011 11012 11012 11013 11013 11013 11013 11013 11013 11013 11013 11013 11013 11012 11012 11011 11011 11011 11010 11009 11008
10987 10989 10991 10992 10994 10995 10996 10997 10998 10999 11000 11001 11002 11003 11005 11005 11006 11007 11008 11009 11010 11010 11011 11012 11012 11013 11013 11013 11013 11013 11013 11012 11012 11012 11012 11011 11011 11010 11010 11009 11008 11007
10985 10987 10989 10990 10992 10992 10994 10995 10996 10997 10998 10999 11000 11001 11003 11004 11004 11005 11006 11007 11008 11009 11010 11011 11011 11012 11012 11013 11012 11012 11012 11012 11012 11011 11011 11010 11010 11009 11009 11008 11007 11006
10984 10985 10987 10988 10989 10990 10992 10993 10995 10996 10997 10997 10998 10999 11001 11002 11003 11003 11004 11006 11007 11008 11009 11010 11010 11011 11011 11012 11012 11012 11011 11011 11011 11010 11010 11010 11009 11009 11008 11007 11006 11005
10981 10983 10985 10986 10987 10988 10990 10991 10992 10994 10994 10995 10996 10997 10999 11000 11001 11002 11003 11004 11005 11006 11008 11008 11009 11010 11010 11010 11011 11011 11011 11010 11010 11010 11009 11009 11009 11008 11007 11006 11005 11003
10979 10981 10983 10984 10985 10987 10988 10989 10990 10991 10992 10993 10995 10996 10997 10998 10999 11000 11002 11003 11004 11005 11006 11007 11008 11008 11009 11009 11009 11010 11010 11010 11009 11009 11009 11008 11008 11007 11006 11005 11004 11002
10976 10978 10980 10982 10983 10985 10986 10987 10988 10989 10990 10991 10993 10994 10995 10996 10997 10999 11000 11002 11003 11004 11005 11005 11006 11007 11007 11007 11008 11008 11008 11008 11008 11008 11008 11007 11006 11006 11005 11004 11002 11001
10973 10975 10977 10979 10981 10983 10984 10985 10986 10987 10988 10989 10990 10991 10993 10994 10996 10997 10998 11000 11001 11002 11003 11004 11005 11005 11005 11006 11006 11006 11006 11007 11007 11007 11007 11006 11005 11004 11003 11002 11001 11000
10970 10971 10973 10975 10978 10980 10981 10983 10984 10985 10986 10987 10988 10989 10991 10992 10993 10995 10997 10998 10999 11000 11001 11002 11003 11003 11004 11004 11004 11004 11004 11005 11006 11006 11005 11005 11004 11002 11001 11000 10999 10998
10966 10967 10969 10972 10975 10977 10978 10980 10981 10983 10984 10986 10987 10988 10989 10990 10991 10993 10994 10996 10997 10998 10999 11000 11001 11001 11002 11002 11002 11002 11002 11003 11003 11004 11003 11003 11002 11001 11000 10999 10998 10997
10963 10964 10965 10969 10972 10974 10975 10977 10978 10980 10982 10983 10985 10986 10987 10988 10989 10991 10992 10994 10995 10996 10997 10997 10998 10999 11000 11000 11000 11000 11000 11001 11001 11001 11001 11000 11000 10999 10998 10997 10996 10995
10960 10961 10963 10966 10968 10971 10972 10973 10975 10977 10979 10980 10982 10983 10984 10986 10987 10989 10990 10991 10992 10993 10994 10995 10996 10997 10997 10998 10998 10999 10999 10999 10998 10998 10998 10997 10997 10996 10996 10995 10994 10993
10958 10959 10961 10963 10965 10967 10968 10970 10972 10974 10976 10977 10979 10980 10982 10984 10985 10986 10987 10988 10989 10991 10992 10993 10994 10995 10995 10996 10996 10996 10996 10996 10996 10996 10995 10995 10994 10993 10993 10992 10992 10991
10955 10957 10958 10960 10961 10962 10964 10966 10969 10971 10973 10974 10976 10978 10979 10981 10982 10983 10984 10985 10987 10988 10988 10990 10991 10992 10993 10993 10993 10994 10994 10994 10993 10993 10992 10992 10991 10991 10990 10989 10989 10988
10951 10953 10955 10956 10957 10958 10960 10963 10965 10968 10970 10971 10973 10975 10976 10978 10979 10980 10981 10983 10984 10984 10985 10986 10988 10989 10990 10990 10990 10990 10990 10990 10990 10990 10990 10989 10989 10988 10988 10987 10986 10985
10946 10949 10951 10952 10954 10955 10957 10959 10961 10964 10966 10967 10969 10971 10973 10974 10975 10977 10979 10980 10981 10981 10982 10983 10984 10985 10986 10986 10987 10987 10987 10987 10987 10987 10986 10986 10986 10986 10985 10984 10984 10983
10942 10944 10946 10948 10950 10952 10953 10955 10957 10959 10961 10963 10965 10967 10969 10970 10971 10973 10975 10976 10977 10977 10979 10980 10980 10981 10982 10982 10983 10983 10983 10983 10983 10983 10983 10983 10983 10982 10982 10981 10981 10980
10939 10940 10942 10944 10946 10948 10950 10951 10952 10954 10956 10958 10960 10963 10964 10965 10967 10970 10971 10972 10973 10974 10975 10975 10976 10977 10978 10978 10979 10978 10978 10979 10979 10980 10980 10979 10979 10979 10978 10978 10978 10977
10935 10936 10938 10940 10942 10943 10945 10945 10947 10949 10951 10953 10956 10957 10959 10961 10963 10965 10966 10967 10969 10970 10971 10971 10972 10973 10973 10974 10974 10974 10974 10975 10975 10976 10976 10976 10976 10975 10975 10974 10974 10973
10930 10932 10934 10936 10937 10938 10939 10940 10942 10944 10946 10949 10951 10952 10954 10956 10957 10959 10961 10963 10964 10965 10966 10967 10968 10969 10969 10969 10970 10969 10970 10970 10971 10971 10971 10971 10972 10971 10971 10970 10970 10970
10926 10928 10930 10932 10933 10933 10934 10936 10938 10940 10942 10944 10946 10947 10948 10950 10952 10954 10956 10958 10959 10960 10961 10962 10963 10964 10964 10965 10965 10965 10966 10966 10966 10966 10966 10967 10967 10967 10966 10966 10966 10965
10922 10924 10926 10927 10928 10929 10930 10932 10934 10936 10938 10939 10941 10942 10943 10945 10947 10949 10951 10952 10953 10954 10955 10957 10959 10959 10960 10960 10961 10961 10961 10961 10961 10961 10961 10962 10962 10962 10961 10961 10961 10961
10918 10919 10921 10923 10924 10925 10926 10927 10929 10931 10933 10934 10935 10937 10938 10940 10942 10943 10945 10946 10947 10949 10951 10952 10953 10954 10955 10955 10956 10956 10955 10956 10956 10956 10956 10957 10958 10956 10955 10956 10956 10956
10913 10915 10917 10918 10920 10921 10922 10923 10924 10925 10927 10928 10929 10931 10933 10935 10936 10937 10939 10940 10942 10943 10945 10946 10948 10949 10949 10950 10951 10951 10950 10950 10950 10950 10951 10953 10953 10951 10950 10950 10951 10951